CAPE
nan nan nan nan nan nan nan nan nan nan nan nan nan nan nan nan nan nan nan nan nan nan nan nan nan nan nan nan nan nan nan nan nan nan nan nan 1 1 1 1 1 2 1 1 1 0 0 0 0 1 2 3 4 4 5 5 5 6 7 9 9 10 11 14 14 15 18 24 28 28 28 28 27 27 32 36 30 30 28 28 28 31 38 49 49 56
nan nan nan nan nan nan nan nan nan nan nan nan nan nan nan nan nan nan nan nan nan nan nan nan nan nan nan nan nan nan nan nan nan nan nan 0 1 1 1 3 3 3 2 2 2 0 0 0 0 1 1 3 4 4 5 4 4 5 7 9 9 11 12 17 17 21 23 29 29 29 26 24 26 26 29 36 36 36 34 29 29 31 39 53 53 64
nan nan nan nan nan nan nan nan nan nan nan nan nan nan nan nan nan nan nan nan nan nan nan nan nan nan nan nan nan nan nan nan nan nan nan 0 1 1 1 3 3 3 3 2 2 1 0 0 0 1 1 2 3 3 4 3 3 4 5 7 7 9 12 17 17 22 25 28 26 26 23 23 25 25 29 35 36 36 39 34 34 35 42 54 54 60
nan nan nan nan nan nan nan nan nan nan nan nan nan nan nan nan nan nan nan nan nan nan nan nan nan nan nan nan nan nan nan nan nan nan nan nan 0 0 2 3 3 3 2 2 2 1 0 0 0 1 2 2 2 2 3 3 3 3 3 5 5 7 11 14 14 20 21 23 24 24 23 24 28 28 30 35 40 40 42 40 40 41 45 53 53 57
nan nan nan nan nan nan nan nan nan nan nan nan nan nan nan nan nan nan nan nan nan nan nan nan nan nan nan nan nan nan nan nan nan nan nan nan 0 0 1 2 2 1 1 0 0 0 0 0 0 1 1 2 2 2 2 3 3 3 3 4 4 7 10 14 14 17 21 24 24 24 27 29 30 30 33 40 42 42 45 42 42 42 46 52 52 56
nan nan nan nan nan nan nan nan nan nan nan nan nan nan nan nan nan nan nan nan nan nan nan nan nan nan nan nan nan nan nan nan nan nan nan nan nan nan 0 0 0 0 nan nan nan nan 0 0 0 0 1 1 1 1 1 2 2 3 4 4 4 5 9 12 12 17 20 22 23 23 24 24 27 27 33 37 39 39 41 40 40 39 44 50 50 53
nan nan nan nan nan nan nan nan nan nan nan nan nan nan nan nan nan nan nan nan nan nan nan nan nan nan nan nan nan nan nan nan nan nan nan nan nan nan nan nan nan nan nan nan nan nan nan 0 0 0 0 1 1 1 2 2 2 3 4 5 5 4 6 11 11 13 17 18 19 19 17 18 20 20 22 28 34 34 37 37 37 35 42 48 48 50
nan nan nan nan nan nan nan nan nan nan nan nan nan nan nan nan nan nan nan nan nan nan nan nan nan nan nan nan nan nan nan nan nan nan nan nan nan nan nan nan nan nan nan nan nan nan nan nan nan 0 0 1 1 1 1 1 1 2 1 1 1 1 2 5 5 7 12 14 15 15 16 14 14 14 11 12 15 15 20 28 28 34 34 38 38 41
nan nan nan nan nan nan nan nan nan nan nan nan nan nan nan nan nan nan nan nan nan nan nan nan nan nan nan nan nan nan nan nan nan nan nan nan nan nan nan nan nan nan nan nan nan nan nan nan nan nan nan 0 0 0 0 nan nan nan nan nan nan nan 0 0 0 2 5 9 10 10 11 10 10 10 9 10 12 12 15 20 20 26 32 33 33 35
nan nan nan nan nan nan nan nan nan nan nan nan nan nan nan nan nan nan nan nan nan nan nan nan nan nan nan nan nan nan nan nan nan nan nan nan nan nan nan nan nan nan nan nan nan nan nan nan nan nan nan nan nan nan nan nan nan nan nan nan nan nan nan nan nan nan 1 1 4 4 6 6 7 7 6 8 8 8 12 14 14 19 23 26 26 28
nan nan nan nan nan nan nan nan nan nan nan nan nan nan nan nan nan nan nan nan nan nan nan nan nan nan nan nan nan nan nan nan nan nan nan nan nan nan nan nan nan nan nan nan nan nan nan nan nan nan nan nan nan nan nan nan nan nan nan nan nan nan nan nan nan nan nan 0 0 0 1 1 2 2 3 4 7 7 8 10 10 12 14 18 18 22
nan nan nan nan nan nan nan nan nan nan nan nan nan nan nan nan nan nan nan nan nan nan nan nan nan nan nan nan nan nan nan nan nan nan nan nan nan nan nan nan nan nan nan nan nan nan nan nan nan nan nan nan nan nan nan nan nan nan nan nan nan nan nan nan nan nan nan nan nan nan nan nan 0 0 2 2 4 4 7 8 8 9 9 12 12 16
nan nan nan nan nan nan nan nan nan nan nan nan nan nan nan nan nan nan nan nan nan nan nan nan nan nan nan nan nan nan nan nan nan nan nan nan nan nan nan nan nan nan nan nan nan nan nan nan nan nan nan nan nan nan nan nan nan nan nan nan nan nan nan nan nan nan nan nan nan nan nan nan nan nan 0 1 3 3 4 6 6 7 7 9 9 13
nan nan nan nan nan nan nan nan nan nan nan nan nan nan nan nan nan nan nan nan nan nan nan nan nan nan nan nan nan nan nan nan nan nan nan nan nan nan nan nan nan nan nan nan nan nan nan nan nan nan nan nan nan nan nan nan nan nan nan nan nan nan nan nan nan nan nan nan nan nan nan nan nan nan nan 1 2 2 3 4 4 6 7 8 8 11
nan nan nan nan nan nan nan nan nan nan nan nan nan nan nan nan nan nan nan nan nan nan nan nan nan nan nan nan nan nan nan nan nan nan nan nan nan nan nan nan nan nan nan nan nan nan nan nan nan nan nan nan nan nan nan nan nan nan nan nan nan nan nan nan nan nan nan nan nan nan nan nan nan nan nan 0 1 1 3 4 4 5 7 8 8 9
nan nan nan nan nan nan nan nan nan nan nan nan nan nan nan nan nan nan nan nan nan nan nan nan nan nan nan nan nan nan nan nan nan nan nan nan nan nan nan nan nan nan nan nan nan nan nan nan nan nan nan nan nan nan nan nan nan nan nan nan nan nan nan nan nan nan nan nan nan nan nan nan nan nan nan nan 0 0 2 3 3 4 5 5 5 7
nan nan nan nan nan nan nan nan nan nan nan nan nan nan nan nan nan nan nan nan nan nan nan nan nan nan nan nan nan nan nan nan nan nan nan nan nan nan nan nan nan nan nan nan nan nan nan nan nan nan nan nan nan nan nan nan nan nan nan nan nan nan nan nan nan nan nan nan nan nan nan nan nan nan nan nan 0 0 1 2 2 3 4 4 4 4
nan nan nan nan nan nan nan nan nan nan nan nan nan nan nan nan nan nan nan nan nan nan 2 1 1 1 nan nan nan nan nan nan nan nan nan nan nan nan nan nan nan nan nan nan nan nan nan nan nan nan nan nan nan nan nan nan nan nan nan nan nan nan nan nan nan nan nan nan nan nan nan nan nan nan nan nan 0 0 1 1 1 2 3 3 3 3
nan nan nan nan nan nan nan nan nan nan nan nan nan nan nan nan nan nan nan nan nan 8 8 8 8 7 0 nan nan nan nan nan nan nan nan nan nan nan nan nan nan nan nan nan nan nan nan nan nan nan nan nan nan nan nan nan nan nan nan nan nan nan nan nan nan nan nan nan nan nan nan nan nan nan nan 0 0 0 1 2 2 2 3 3 3 3
nan nan nan nan nan nan nan nan nan nan nan nan nan nan nan nan nan nan nan nan nan 5 10 11 11 9 4 6 nan nan nan nan nan nan nan nan nan nan nan nan nan nan nan nan nan nan nan nan nan nan nan nan nan nan nan nan nan nan nan nan nan nan nan nan nan nan nan nan nan nan nan nan nan nan 0 0 1 1 2 2 2 3 3 3 3 3
nan nan nan nan nan nan nan nan nan nan nan nan nan nan nan nan nan nan nan nan nan nan 3 8 8 7 4 2 nan nan nan nan nan nan nan nan nan nan nan nan nan nan nan nan nan nan nan nan nan nan nan nan nan nan nan nan nan nan nan nan nan nan nan nan nan nan nan nan nan nan nan 0 1 1 2 2 3 3 3 3 3 4 3 4 4 4
nan nan nan nan nan nan nan nan nan nan nan nan nan nan nan nan nan nan nan nan nan nan 1 2 2 1 0 nan 1 1 nan nan nan nan nan 0 nan nan nan nan nan nan nan nan nan nan nan nan nan nan nan nan nan nan nan nan nan nan nan nan nan nan nan nan nan nan nan nan 0 0 1 1 3 3 3 5 5 5 5 5 5 5 6 5 5 6
nan nan nan nan nan nan nan nan nan nan nan nan nan nan nan nan nan nan nan nan nan nan 1 2 2 nan nan nan nan nan nan nan nan nan 0 3 0 0 nan nan nan nan nan nan nan nan nan nan nan nan nan nan nan nan nan nan nan nan nan nan nan nan nan nan nan nan nan nan 1 1 2 3 4 4 5 6 7 7 8 8 8 8 8 8 8 9
nan nan nan nan nan nan nan nan nan nan nan nan nan nan 0 nan nan nan 0 3 3 6 11 7 7 7 7 3 0 0 nan nan nan nan 1 6 11 11 nan nan nan nan nan nan nan nan nan nan nan nan nan nan nan nan nan nan nan nan nan nan nan nan nan nan nan nan nan 0 1 1 2 3 4 4 4 6 8 8 9 10 10 10 12 11 11 11
nan nan nan nan nan nan nan nan nan nan nan 0 0 0 nan 5 10 10 12 23 23 31 34 38 38 38 33 27 9 9 nan nan nan nan 1 10 7 7 nan nan nan nan nan nan nan nan nan nan nan nan nan nan nan nan nan nan nan nan nan nan nan nan nan nan nan nan 0 0 1 1 2 3 3 3 4 7 8 8 9 11 11 12 13 13 13 12
nan nan nan nan nan nan 0 4 14 14 18 8 7 7 10 15 24 24 31 41 41 48 54 43 43 30 12 1 7 7 nan nan nan nan 3 14 4 4 nan nan nan nan nan nan nan nan nan nan nan nan nan nan nan nan nan nan nan nan nan nan nan nan nan nan nan nan 0 1 1 1 1 2 3 3 4 6 7 7 9 10 10 11 14 14 14 13
5 5 13 16 16 18 26 35 41 41 42 32 10 10 4 6 9 9 16 28 28 27 28 23 23 13 4 0 1 1 nan nan nan nan nan 10 9 9 2 nan nan nan nan nan nan nan nan nan nan nan nan nan nan nan nan nan nan nan nan nan nan nan nan nan nan 1 1 1 1 1 1 2 3 3 4 5 6 6 7 8 8 10 11 13 13 14
8 10 14 15 15 21 26 29 32 32 35 35 38 38 22 3 2 2 8 7 7 8 13 17 17 14 7 3 nan nan nan nan nan nan nan 1 10 10 3 nan nan nan nan nan nan nan nan nan nan nan nan nan nan nan nan nan nan nan nan nan nan nan nan 0 0 1 2 2 1 1 1 1 2 2 3 4 5 5 6 7 7 7 8 8 8 1
4 8 11 14 14 18 23 26 33 33 36 37 37 37 22 1 1 1 3 1 1 4 12 20 20 17 9 6 0 0 2 2 nan nan nan 1 6 6 nan nan nan nan nan 4 4 nan nan nan nan nan nan nan nan nan nan nan nan nan nan nan nan nan nan nan nan 0 0 1 0 0 0 0 1 1 1 2 3 3 3 4 4 5 5 3 3 nan
nan nan 4 10 10 18 23 17 26 26 37 38 35 35 22 0 nan nan 0 0 0 2 11 18 18 17 12 11 8 8 6 7 nan nan nan nan 7 7 nan nan nan nan 5 12 12 3 nan nan nan nan nan nan nan nan nan nan nan nan nan nan nan nan nan nan nan nan nan nan nan nan nan nan nan nan nan 0 0 0 1 1 1 2 nan nan nan nan
nan nan nan nan nan 1 0 nan 1 1 23 34 28 28 12 nan nan nan nan nan nan 5 12 15 15 18 18 19 11 11 1 nan nan nan nan nan 5 5 nan nan nan nan 9 13 13 22 1 nan nan nan nan nan nan nan nan nan nan nan nan nan nan nan nan nan nan nan nan nan nan nan nan nan nan nan nan nan nan nan 0 1 1 0 nan nan nan nan
nan nan nan nan nan nan nan nan nan nan nan nan nan nan nan nan nan nan nan nan nan 7 17 25 25 25 25 23 13 13 9 nan nan nan nan 2 8 8 15 16 16 4 5 16 16 24 30 25 25 nan nan nan nan nan nan nan nan nan nan nan nan nan nan nan nan nan nan nan nan nan nan nan nan nan nan nan nan nan nan nan nan 2 nan nan nan nan
nan nan nan nan nan nan nan nan nan nan nan nan nan nan nan nan 1 1 0 1 1 11 17 19 19 20 16 12 11 11 11 nan 1 1 12 9 11 11 3 5 5 3 8 16 16 30 36 29 29 nan nan nan nan nan nan nan nan nan nan nan nan nan nan nan nan nan nan nan nan nan nan nan nan nan nan nan nan nan nan nan nan nan nan nan nan nan
nan nan nan nan nan nan nan nan nan nan nan nan nan nan nan nan nan nan nan 1 1 9 11 10 10 10 12 8 10 10 8 4 13 13 23 14 20 20 nan nan nan nan 7 17 17 26 23 4 4 3 2 nan nan nan nan nan nan nan nan nan nan nan nan nan nan nan nan nan nan nan nan nan nan nan nan nan nan nan nan nan nan nan nan nan nan nan
nan nan nan nan nan nan nan nan nan nan nan nan nan nan nan nan nan nan nan 1 1 4 6 5 5 6 7 9 13 13 8 0 8 8 33 24 20 20 nan nan nan nan 10 19 19 22 14 nan nan 1 3 9 nan nan nan nan nan nan nan nan nan nan nan nan nan nan nan nan nan nan nan nan nan nan nan nan nan nan nan nan nan nan nan nan nan nan
nan nan nan nan nan nan nan nan nan nan nan nan nan nan nan nan nan nan nan nan nan 2 9 9 9 14 14 20 27 27 22 12 22 22 40 30 28 28 26 5 5 7 15 18 18 12 5 0 0 1 6 15 4 4 nan nan nan nan nan nan nan nan nan nan nan nan nan nan nan nan nan nan nan nan nan nan nan nan nan nan nan nan nan nan nan 2
nan nan nan nan nan nan nan nan nan nan nan nan nan nan nan nan nan nan nan nan nan nan 1 15 15 20 36 46 50 50 46 33 31 31 36 33 31 31 34 33 33 34 18 19 19 12 4 1 1 2 8 12 2 2 nan nan nan nan nan nan nan nan nan nan nan nan nan nan nan nan nan nan nan nan nan nan nan nan nan nan nan nan nan nan nan 0
1 nan nan nan nan nan nan nan nan nan nan nan nan nan nan nan nan nan nan nan nan nan nan nan nan nan 9 23 24 24 22 28 16 16 21 22 24 24 30 34 34 50 45 35 35 21 14 13 13 8 5 nan nan nan nan nan nan nan nan nan nan nan nan nan nan nan nan nan nan nan nan nan nan nan nan nan nan nan nan nan nan nan nan nan nan nan
nan nan nan nan nan nan nan nan nan nan nan nan nan nan nan nan nan nan nan nan nan nan nan nan nan nan nan nan nan nan 1 nan nan nan nan nan 0 0 20 30 30 33 45 35 35 30 25 15 15 7 5 1 nan nan nan nan nan nan nan nan nan nan nan nan nan nan nan nan nan nan nan nan nan nan nan nan nan nan nan nan nan nan nan nan nan nan
nan nan nan nan nan nan nan nan nan nan nan nan nan nan nan nan nan nan nan nan nan nan nan nan nan nan nan nan nan nan nan nan nan nan nan nan nan nan 1 17 17 22 26 23 23 18 16 8 8 4 9 5 6 6 nan nan nan nan nan nan nan nan nan nan nan nan nan nan nan nan nan nan nan nan nan nan nan nan nan nan nan nan nan nan nan nan
nan 0 nan nan nan nan nan nan nan nan nan nan nan nan nan nan nan nan nan nan nan nan nan nan nan nan nan nan nan nan nan nan nan nan nan nan nan nan nan 0 0 4 15 23 23 22 18 11 11 8 6 5 4 4 0 nan nan nan nan nan nan nan nan nan nan nan nan nan nan nan nan nan nan nan nan nan nan nan nan nan nan nan nan nan nan nan
9 5 0 nan nan nan nan nan nan nan nan nan nan nan 1 2 2 2 nan 1 1 nan nan nan nan nan nan nan nan nan nan nan nan nan nan nan nan nan nan nan nan nan 7 18 18 24 28 29 29 21 15 6 1 1 nan nan nan nan nan nan nan nan nan nan nan nan nan nan nan nan nan nan nan nan nan nan nan nan nan nan nan nan nan nan nan nan
2 nan nan nan nan nan nan nan 0 0 0 0 5 5 7 9 6 6 8 9 9 2 nan nan nan nan nan nan 0 0 nan nan nan nan nan nan nan nan nan nan nan nan 7 16 16 19 26 37 37 24 13 2 0 0 nan nan nan nan nan nan nan nan nan nan nan nan nan nan nan nan nan nan nan nan nan nan nan nan nan nan nan nan nan nan nan nan
nan nan nan nan nan nan nan 0 1 1 2 5 8 8 3 nan nan nan 7 10 10 9 4 5 5 14 26 18 12 12 16 3 nan nan nan nan nan nan nan nan nan nan 4 13 13 9 13 17 17 8 2 nan nan nan nan nan nan nan nan nan nan nan nan nan nan nan nan nan nan nan nan nan nan nan nan nan nan nan nan nan nan nan nan nan nan nan
nan nan nan nan nan nan nan nan 0 0 0 2 1 1 0 nan 1 1 12 37 37 46 34 10 10 2 2 4 8 8 6 nan nan nan nan nan nan nan nan nan nan nan nan 3 3 10 11 11 11 4 0 nan nan nan nan nan nan nan nan nan nan nan nan nan nan nan nan nan nan nan nan nan nan nan nan nan nan nan nan nan nan nan nan nan nan nan
nan nan nan nan nan nan nan nan nan nan nan nan nan nan nan nan nan nan 9 11 11 nan nan nan nan nan 0 0 0 0 1 nan nan nan nan nan nan nan nan nan nan nan nan 1 1 5 7 6 6 3 1 nan nan nan nan nan nan nan nan nan nan nan nan nan nan nan nan nan nan nan nan nan nan nan nan nan nan nan nan nan nan nan nan nan nan nan
nan nan nan nan nan nan nan nan nan nan nan nan nan nan nan nan nan nan nan nan nan nan 0 0 0 1 3 4 5 5 5 3 nan nan nan nan nan nan nan nan nan nan nan nan nan nan nan nan nan nan nan nan nan nan nan nan nan nan nan nan nan nan nan nan nan nan nan nan nan nan nan nan nan nan nan nan nan nan nan nan nan nan nan nan nan nan
nan nan nan nan nan nan nan nan nan nan nan nan nan nan nan nan nan nan 0 1 1 1 4 2 2 3 3 3 5 5 6 4 nan nan nan nan nan nan nan nan nan nan nan nan nan nan nan nan nan nan nan nan nan nan nan nan nan nan nan nan nan nan nan nan nan nan nan nan nan nan nan nan nan nan nan nan nan nan nan nan nan nan nan nan nan nan
nan nan nan nan nan nan nan nan nan nan nan nan nan nan nan nan 9 9 3 1 1 1 3 3 3 4 3 1 0 0 0 2 1 1 4 15 1 1 nan nan nan nan nan nan nan nan nan nan nan nan nan nan nan nan nan nan nan nan nan nan nan nan nan nan nan nan nan nan nan nan nan nan nan nan nan nan nan nan nan nan nan nan nan nan nan nan
nan nan nan nan nan nan nan nan nan nan nan nan nan nan nan nan nan nan nan nan nan 0 2 3 3 2 2 1 0 0 1 3 7 7 10 5 nan nan nan nan nan nan nan nan nan nan nan nan nan nan nan nan nan nan nan nan nan nan nan nan nan nan nan nan nan nan nan nan nan nan nan nan nan nan nan nan nan nan nan nan nan nan nan nan nan nan
nan nan nan nan nan nan nan nan nan nan nan nan 1 1 2 1 nan nan nan nan nan 1 4 7 7 5 6 5 12 12 17 22 14 14 nan nan nan nan nan nan nan nan nan nan nan nan nan nan nan nan nan nan nan nan nan nan nan nan nan nan nan nan nan nan nan nan nan nan nan nan nan nan nan nan nan nan nan nan nan nan nan nan nan nan nan nan
CIN
nan nan nan nan nan nan nan nan nan nan nan nan nan nan nan nan nan nan nan nan nan nan nan nan nan nan nan nan nan nan nan nan nan nan nan nan -0 -0 -0 -0 -0 -0 -0 -0 -0 -0 -0 -0 -0 -0 -0 -0 -0 -0 -0 -0 -0 -0 -0 -0 -0 -0 -0 -0 -0 -0 -0 -0 -0 -0 -0 -1 -1 -1 -0 -0 -0 -0 -0 -0 -0 -0 -0 -0 -0 -0
nan nan nan nan nan nan nan nan nan nan nan nan nan nan nan nan nan nan nan nan nan nan nan nan nan nan nan nan nan nan nan nan nan nan nan -0 -0 -0 -0 -0 -0 -0 -0 -0 -0 -1 -0 -0 -0 -0 -0 -0 -0 -0 -0 -0 -0 -0 -0 -0 -0 -0 -0 -0 -0 -0 -0 -0 -0 -0 -0 -0 -0 -0 -0 -0 -0 -0 -0 -0 -0 -0 -0 -0 -0 -0
nan nan nan nan nan nan nan nan nan nan nan nan nan nan nan nan nan nan nan nan nan nan nan nan nan nan nan nan nan nan nan nan nan nan nan -0 -0 -0 -0 -0 -0 -0 -0 -0 -0 -0 -0 -0 -0 -0 -0 -0 -0 -0 -0 -0 -0 -0 -0 -0 -0 -0 -0 -0 -0 -0 -0 -0 -0 -0 -0 -0 -0 -0 -0 -0 -0 -0 -0 -0 -0 -0 -0 -0 -0 -0
nan nan nan nan nan nan nan nan nan nan nan nan nan nan nan nan nan nan nan nan nan nan nan nan nan nan nan nan nan nan nan nan nan nan nan nan -0 -0 -0 -0 -0 -0 -0 -0 -0 -0 -0 -0 -0 -0 -0 -0 -0 -0 -0 -0 -0 -0 -0 -0 -0 -0 -0 -0 -0 -0 -0 -0 -0 -0 -0 -0 -0 -0 -0 -0 -0 -0 -0 -0 -0 -0 -0 -0 -0 -0
nan nan nan nan nan nan nan nan nan nan nan nan nan nan nan nan nan nan nan nan nan nan nan nan nan nan nan nan nan nan nan nan nan nan nan nan -0 -0 -0 -0 -0 -0 -0 -0 -0 -0 -0 -0 -0 -0 -0 -0 -0 -0 -0 -0 -0 -0 -0 -0 -0 -1 -1 -0 -0 -0 -0 -0 -0 -0 -0 -0 -0 -0 -0 -0 -0 -0 -0 -0 -0 -0 -0 -0 -0 -0
nan nan nan nan nan nan nan nan nan nan nan nan nan nan nan nan nan nan nan nan nan nan nan nan nan nan nan nan nan nan nan nan nan nan nan nan nan nan -0 -0 -0 -0 nan nan nan nan -0 -0 -0 -0 -0 -0 -0 -0 -0 -0 -0 -0 -0 -0 -0 -1 -2 -1 -1 -0 -0 -1 -0 -0 -0 -0 -0 -0 -0 -0 -0 -0 -0 -0 -0 -0 -0 -0 -0 -0
nan nan nan nan nan nan nan nan nan nan nan nan nan nan nan nan nan nan nan nan nan nan nan nan nan nan nan nan nan nan nan nan nan nan nan nan nan nan nan nan nan nan nan nan nan nan nan -0 -0 -0 -0 -0 -0 -0 -0 -0 -0 -0 -0 -0 -0 -0 -0 -1 -1 -1 -0 -0 -0 -0 -0 -0 -0 -0 -0 -0 -0 -0 -0 -0 -0 -0 -0 -0 -0 -0
nan nan nan nan nan nan nan nan nan nan nan nan nan nan nan nan nan nan nan nan nan nan nan nan nan nan nan nan nan nan nan nan nan nan nan nan nan nan nan nan nan nan nan nan nan nan nan nan nan -0 -0 -0 -0 -0 -0 -0 -0 -0 -1 -0 -0 -0 -0 -0 -0 -0 -0 -0 -0 -0 -0 -0 -1 -1 -1 -0 -0 -0 -0 -0 -0 -0 -0 -0 -0 -0
nan nan nan nan nan nan nan nan nan nan nan nan nan nan nan nan nan nan nan nan nan nan nan nan nan nan nan nan nan nan nan nan nan nan nan nan nan nan nan nan nan nan nan nan nan nan nan nan nan nan nan -0 -0 -0 -0 nan nan nan nan nan nan nan -0 -0 -0 -0 -0 -0 -0 -0 -0 -0 -0 -0 -0 -0 -0 -0 -0 -0 -0 -0 -0 -0 -0 -0
nan nan nan nan nan nan nan nan nan nan nan nan nan nan nan nan nan nan nan nan nan nan nan nan nan nan nan nan nan nan nan nan nan nan nan nan nan nan nan nan nan nan nan nan nan nan nan nan nan nan nan nan nan nan nan nan nan nan nan nan nan nan nan nan nan nan -0 -0 -0 -0 -0 -0 -0 -0 -0 -0 -0 -0 -0 -0 -0 -0 -0 -0 -0 -0
nan nan nan nan nan nan nan nan nan nan nan nan nan nan nan nan nan nan nan nan nan nan nan nan nan nan nan nan nan nan nan nan nan nan nan nan nan nan nan nan nan nan nan nan nan nan nan nan nan nan nan nan nan nan nan nan nan nan nan nan nan nan nan nan nan nan nan -0 -0 -0 -0 -0 -0 -0 -0 -0 -1 -1 -1 -1 -1 -0 -0 -0 -0 -0
nan nan nan nan nan nan nan nan nan nan nan nan nan nan nan nan nan nan nan nan nan nan nan nan nan nan nan nan nan nan nan nan nan nan nan nan nan nan nan nan nan nan nan nan nan nan nan nan nan nan nan nan nan nan nan nan nan nan nan nan nan nan nan nan nan nan nan nan nan nan nan nan -0 -0 -0 -0 -0 -0 -1 -2 -2 -2 -0 -0 -0 -0
nan nan nan nan nan nan nan nan nan nan nan nan nan nan nan nan nan nan nan nan nan nan nan nan nan nan nan nan nan nan nan nan nan nan nan nan nan nan nan nan nan nan nan nan nan nan nan nan nan nan nan nan nan nan nan nan nan nan nan nan nan nan nan nan nan nan nan nan nan nan nan nan nan nan -0 -0 -0 -0 -1 -2 -2 -2 -1 -0 -0 -0
nan nan nan nan nan nan nan nan nan nan nan nan nan nan nan nan nan nan nan nan nan nan nan nan nan nan nan nan nan nan nan nan nan nan nan nan nan nan nan nan nan nan nan nan nan nan nan nan nan nan nan nan nan nan nan nan nan nan nan nan nan nan nan nan nan nan nan nan nan nan nan nan nan nan nan -0 -0 -0 -1 -1 -1 -1 -1 -0 -0 -0
nan nan nan nan nan nan nan nan nan nan nan nan nan nan nan nan nan nan nan nan nan nan nan nan nan nan nan nan nan nan nan nan nan nan nan nan nan nan nan nan nan nan nan nan nan nan nan nan nan nan nan nan nan nan nan nan nan nan nan nan nan nan nan nan nan nan nan nan nan nan nan nan nan nan nan -0 -0 -0 -0 -1 -1 -0 -0 -0 -0 -0
nan nan nan nan nan nan nan nan nan nan nan nan nan nan nan nan nan nan nan nan nan nan nan nan nan nan nan nan nan nan nan nan nan nan nan nan nan nan nan nan nan nan nan nan nan nan nan nan nan nan nan nan nan nan nan nan nan nan nan nan nan nan nan nan nan nan nan nan nan nan nan nan nan nan nan nan -0 -0 -0 -0 -0 -0 -0 -0 -0 -0
nan nan nan nan nan nan nan nan nan nan nan nan nan nan nan nan nan nan nan nan nan nan nan nan nan nan nan nan nan nan nan nan nan nan nan nan nan nan nan nan nan nan nan nan nan nan nan nan nan nan nan nan nan nan nan nan nan nan nan nan nan nan nan nan nan nan nan nan nan nan nan nan nan nan nan nan -1 -1 -0 -0 -0 -0 -0 -0 -0 -0
nan nan nan nan nan nan nan nan nan nan nan nan nan nan nan nan nan nan nan nan nan nan -10 -9 -9 -10 nan nan nan nan nan nan nan nan nan nan nan nan nan nan nan nan nan nan nan nan nan nan nan nan nan nan nan nan nan nan nan nan nan nan nan nan nan nan nan nan nan nan nan nan nan nan nan nan nan nan -1 -1 -0 -0 -0 -0 -0 -0 -0 -0
nan nan nan nan nan nan nan nan nan nan nan nan nan nan nan nan nan nan nan nan nan -5 -4 -3 -3 -5 -14 nan nan nan nan nan nan nan nan nan nan nan nan nan nan nan nan nan nan nan nan nan nan nan nan nan nan nan nan nan nan nan nan nan nan nan nan nan nan nan nan nan nan nan nan nan nan nan nan -2 -1 -1 -0 -0 -0 -0 -0 -0 -0 -0
nan nan nan nan nan nan nan nan nan nan nan nan nan nan nan nan nan nan nan nan nan -12 -8 -5 -5 -6 -10 -7 nan nan nan nan nan nan nan nan nan nan nan nan nan nan nan nan nan nan nan nan nan nan nan nan nan nan nan nan nan nan nan nan nan nan nan nan nan nan nan nan nan nan nan nan nan nan -3 -2 -1 -1 -0 -0 -0 -0 -0 -0 -0 -0
nan nan nan nan nan nan nan nan nan nan nan nan nan nan nan nan nan nan nan nan nan nan -16 -8 -8 -9 -12 -14 nan nan nan nan nan nan nan nan nan nan nan nan nan nan nan nan nan nan nan nan nan nan nan nan nan nan nan nan nan nan nan nan nan nan nan nan nan nan nan nan nan nan nan -2 -2 -2 -2 -1 -1 -1 -0 -0 -0 -0 -0 -0 -0 -0
nan nan nan nan nan nan nan nan nan nan nan nan nan nan nan nan nan nan nan nan nan nan -20 -18 -18 -21 -24 nan -18 -18 nan nan nan nan nan -12 nan nan nan nan nan nan nan nan nan nan nan nan nan nan nan nan nan nan nan nan nan nan nan nan nan nan nan nan nan nan nan nan -1 -1 -1 -1 -1 -1 -1 -1 -1 -1 -0 -0 -0 -0 -0 -0 -0 -0
nan nan nan nan nan nan nan nan nan nan nan nan nan nan nan nan nan nan nan nan nan nan -25 -27 -27 nan nan nan nan nan nan nan nan nan -27 -6 -11 -11 nan nan nan nan nan nan nan nan nan nan nan nan nan nan nan nan nan nan nan nan nan nan nan nan nan nan nan nan nan nan -1 -1 -1 -1 -0 -0 -0 -1 -1 -1 -1 -0 -0 -0 -0 -0 -0 -0
nan nan nan nan nan nan nan nan nan nan nan nan nan nan -37 nan nan nan -47 -31 -31 -24 -19 -28 -28 -29 -24 -31 -50 -50 nan nan nan nan -27 -3 -3 -3 nan nan nan nan nan nan nan nan nan nan nan nan nan nan nan nan nan nan nan nan nan nan nan nan nan nan nan nan nan -0 -0 -0 -0 -0 -0 -0 -0 -0 -0 -0 -0 -1 -1 -1 -1 -1 -1 -2
nan nan nan nan nan nan nan nan nan nan nan -40 -51 -51 nan -38 -24 -24 -19 -12 -12 -7 -6 -3 -3 -2 -5 -8 -20 -20 nan nan nan nan -29 -9 -14 -14 nan nan nan nan nan nan nan nan nan nan nan nan nan nan nan nan nan nan nan nan nan nan nan nan nan nan nan nan -1 -0 -0 -0 -0 -0 -0 -0 -0 -0 -0 -0 -0 -1 -1 -1 -2 -3 -3 -4
nan nan nan nan nan nan -10 -4 -1 -1 -5 -27 -42 -42 -39 -29 -18 -18 -9 -1 -1 -1 -1 -2 -2 -3 -17 -30 -17 -17 nan nan nan nan -27 -8 -14 -14 nan nan nan nan nan nan nan nan nan nan nan nan nan nan nan nan nan nan nan nan nan nan nan nan nan nan nan nan -0 -0 -0 -0 -0 -0 -0 -0 -0 -0 -0 -0 -0 -0 -0 -1 -2 -3 -3 -5
-2 -4 -1 -1 -1 -0 -0 -0 -0 -0 -0 -0 -24 -24 -52 -56 -37 -37 -17 -6 -6 -8 -5 -4 -4 -8 -21 -28 -20 -20 nan nan nan nan nan -14 -9 -9 -29 nan nan nan nan nan nan nan nan nan nan nan nan nan nan nan nan nan nan nan nan nan nan nan nan nan nan -0 -0 -0 -0 -0 -0 -0 -0 -0 -0 -0 -0 -0 -0 -0 -0 -0 -2 -3 -3 -4
-0 -0 -0 -0 -0 -0 -0 -0 -0 -0 -0 -0 -0 -0 -9 -39 -29 -29 -17 -25 -25 -24 -9 -5 -5 -6 -11 -13 nan nan nan nan nan nan nan -29 -8 -8 -24 nan nan nan nan nan nan nan nan nan nan nan nan nan nan nan nan nan nan nan nan nan nan nan nan -0 -0 -0 -0 -0 -0 -0 -0 -0 -0 -0 -0 -0 -0 -0 -0 -0 -0 -0 -2 -4 -4 -16
-10 -8 -6 -5 -5 -3 -1 -0 -0 -0 -0 -0 -0 -0 -6 -36 -25 -25 -18 -33 -33 -24 -9 -5 -5 -5 -7 -9 -23 -23 -19 -21 nan nan nan -37 -7 -7 nan nan nan nan nan -16 -16 nan nan nan nan nan nan nan nan nan nan nan nan nan nan nan nan nan nan nan nan -0 -0 -0 -0 -0 -0 -0 -0 -0 -0 -0 -0 -0 -0 -0 -0 -0 -3 -8 -8 nan
nan nan -25 -16 -16 -8 -5 -15 -7 -7 -0 -0 -0 -0 -4 -37 nan nan -30 -38 -38 -24 -9 -7 -7 -7 -9 -10 -13 -13 -15 -19 nan nan nan nan -7 -7 nan nan nan nan -25 -13 -13 -25 nan nan nan nan nan nan nan nan nan nan nan nan nan nan nan nan nan nan nan nan nan nan nan nan nan nan nan nan nan -0 -0 -0 -0 -0 -0 -0 nan nan nan nan
nan nan nan nan nan -53 -58 nan -45 -45 -5 -0 -0 -0 -10 nan nan nan nan nan nan -26 -12 -9 -9 -8 -8 -6 -7 -7 -20 nan nan nan nan nan -15 -15 nan nan nan nan -27 -11 -11 -3 -29 nan nan nan nan nan nan nan nan nan nan nan nan nan nan nan nan nan nan nan nan nan nan nan nan nan nan nan nan nan nan nan -0 -0 -0 -0 nan nan nan nan
nan nan nan nan nan nan nan nan nan nan nan nan nan nan nan nan nan nan nan nan nan -27 -13 -7 -7 -5 -5 -5 -7 -7 -7 nan nan nan nan -38 -24 -24 -28 -21 -21 -31 -37 -27 -27 -7 -3 -10 -10 nan nan nan nan nan nan nan nan nan nan nan nan nan nan nan nan nan nan nan nan nan nan nan nan nan nan nan nan nan nan nan nan -0 nan nan nan nan
nan nan nan nan nan nan nan nan nan nan nan nan nan nan nan nan -23 -23 -33 -37 -37 -22 -13 -9 -9 -6 -8 -11 -11 -11 -13 nan -57 -57 -44 -31 -21 -21 -38 -31 -31 -29 -26 -17 -17 -10 -4 -4 -4 nan nan nan nan nan nan nan nan nan nan nan nan nan nan nan nan nan nan nan nan nan nan nan nan nan nan nan nan nan nan nan nan nan nan nan nan nan
nan nan nan nan nan nan nan nan nan nan nan nan nan nan nan nan nan nan nan -33 -33 -24 -23 -21 -21 -15 -12 -12 -10 -10 -14 -28 -32 -32 -38 -28 -10 -10 nan nan nan nan -15 -9 -9 -9 -8 -18 -18 -13 -14 nan nan nan nan nan nan nan nan nan nan nan nan nan nan nan nan nan nan nan nan nan nan nan nan nan nan nan nan nan nan nan nan nan nan nan
nan nan nan nan nan nan nan nan nan nan nan nan nan nan nan nan nan nan nan -37 -37 -34 -35 -41 -41 -33 -23 -14 -10 -10 -14 -38 -37 -37 -30 -20 -11 -11 nan nan nan nan -11 -8 -8 -7 -6 nan nan -14 -10 -6 nan nan nan nan nan nan nan nan nan nan nan nan nan nan nan nan nan nan nan nan nan nan nan nan nan nan nan nan nan nan nan nan nan nan
nan nan nan nan nan nan nan nan nan nan nan nan nan nan nan nan nan nan nan nan nan -46 -34 -43 -43 -38 -35 -18 -8 -8 -11 -21 -16 -16 -18 -19 -13 -13 -9 -28 -28 -27 -9 -4 -4 -4 -3 -7 -7 -7 -6 -5 -13 -13 nan nan nan nan nan nan nan nan nan nan nan nan nan nan nan nan nan nan nan nan nan nan nan nan nan nan nan nan nan nan nan -0
nan nan nan nan nan nan nan nan nan nan nan nan nan nan nan nan nan nan nan nan nan nan -56 -29 -29 -27 -20 -15 -9 -9 -9 -12 -16 -16 -16 -19 -14 -14 -6 -8 -8 -11 -11 -7 -7 -9 -17 -14 -14 -8 -8 -8 -15 -15 nan nan nan nan nan nan nan nan nan nan nan nan nan nan nan nan nan nan nan nan nan nan nan nan nan nan nan nan nan nan nan -0
-15 nan nan nan nan nan nan nan nan nan nan nan nan nan nan nan nan nan nan nan nan nan nan nan nan nan -33 -21 -25 -25 -27 -21 -30 -30 -25 -23 -17 -17 -8 -6 -6 -6 -7 -5 -5 -8 -8 -7 -7 -7 -9 nan nan nan nan nan nan nan nan nan nan nan nan nan nan nan nan nan nan nan nan nan nan nan nan nan nan nan nan nan nan nan nan nan nan nan
nan nan nan nan nan nan nan nan nan nan nan nan nan nan nan nan nan nan nan nan nan nan nan nan nan nan nan nan nan nan -42 nan nan nan nan nan -34 -34 -9 -4 -4 -5 -6 -7 -7 -5 -3 -5 -5 -6 -5 -10 nan nan nan nan nan nan nan nan nan nan nan nan nan nan nan nan nan nan nan nan nan nan nan nan nan nan nan nan nan nan nan nan nan nan
nan nan nan nan nan nan nan nan nan nan nan nan nan nan nan nan nan nan nan nan nan nan nan nan nan nan nan nan nan nan nan nan nan nan nan nan nan nan -16 -5 -5 -5 -6 -6 -6 -4 -2 -4 -4 -4 -5 -6 -8 -8 nan nan nan nan nan nan nan nan nan nan nan nan nan nan nan nan nan nan nan nan nan nan nan nan nan nan nan nan nan nan nan nan
nan -12 nan nan nan nan nan nan nan nan nan nan nan nan nan nan nan nan nan nan nan nan nan nan nan nan nan nan nan nan nan nan nan nan nan nan nan nan nan -10 -10 -7 -5 -3 -3 -3 -2 -1 -1 -14 -17 -24 -22 -22 -24 nan nan nan nan nan nan nan nan nan nan nan nan nan nan nan nan nan nan nan nan nan nan nan nan nan nan nan nan nan nan nan
-3 -6 -19 nan nan nan nan nan nan nan nan nan nan nan -26 -25 -20 -20 nan -23 -23 nan nan nan nan nan nan nan nan nan nan nan nan nan nan nan nan nan nan nan nan nan -5 -2 -2 -2 -2 -1 -1 -2 -9 -23 -30 -30 nan nan nan nan nan nan nan nan nan nan nan nan nan nan nan nan nan nan nan nan nan nan nan nan nan nan nan nan nan nan nan nan
-8 nan nan nan nan nan nan nan -28 -28 -33 -34 -17 -17 -18 -17 -18 -18 -13 -11 -11 -15 nan nan nan nan nan nan -23 -23 nan nan nan nan nan nan nan nan nan nan nan nan -4 -1 -1 -2 -3 -3 -3 -3 -7 -25 -37 -37 nan nan nan nan nan nan nan nan nan nan nan nan nan nan nan nan nan nan nan nan nan nan nan nan nan nan nan nan nan nan nan nan
nan nan nan nan nan nan nan -20 -22 -22 -24 -17 -13 -13 -25 nan nan nan -12 -11 -11 -10 -14 -13 -13 -2 -0 -3 -5 -5 -10 -39 nan nan nan nan nan nan nan nan nan nan -19 -1 -1 -2 -3 -4 -4 -7 -28 nan nan nan nan nan nan nan nan nan nan nan nan nan nan nan nan nan nan nan nan nan nan nan nan nan nan nan nan nan nan nan nan nan nan nan
nan nan nan nan nan nan nan nan -22 -22 -26 -17 -20 -20 -26 nan -25 -25 -10 -3 -3 -1 -2 -9 -9 -10 -10 -10 -10 -10 -15 nan nan nan nan nan nan nan nan nan nan nan nan -3 -3 -2 -2 -4 -4 -14 -36 nan nan nan nan nan nan nan nan nan nan nan nan nan nan nan nan nan nan nan nan nan nan nan nan nan nan nan nan nan nan nan nan nan nan nan
nan nan nan nan nan nan nan nan nan nan nan nan nan nan nan nan nan nan -14 -11 -11 nan nan nan nan nan -8 -10 -12 -12 -10 nan nan nan nan nan nan nan nan nan nan nan nan -15 -15 -16 -10 -7 -7 -14 -28 nan nan nan nan nan nan nan nan nan nan nan nan nan nan nan nan nan nan nan nan nan nan nan nan nan nan nan nan nan nan nan nan nan nan nan
nan nan nan nan nan nan nan nan nan nan nan nan nan nan nan nan nan nan nan nan nan nan -23 -21 -21 -12 -6 -6 -5 -5 -5 -7 nan nan nan nan nan nan nan nan nan nan nan nan nan nan nan nan nan nan nan nan nan nan nan nan nan nan nan nan nan nan nan nan nan nan nan nan nan nan nan nan nan nan nan nan nan nan nan nan nan nan nan nan nan nan
nan nan nan nan nan nan nan nan nan nan nan nan nan nan nan nan nan nan -20 -20 -20 -16 -10 -12 -12 -9 -8 -8 -6 -6 -5 -5 nan nan nan nan nan nan nan nan nan nan nan nan nan nan nan nan nan nan nan nan nan nan nan nan nan nan nan nan nan nan nan nan nan nan nan nan nan nan nan nan nan nan nan nan nan nan nan nan nan nan nan nan nan nan
nan nan nan nan nan nan nan nan nan nan nan nan nan nan nan nan -4 -4 -11 -18 -18 -17 -10 -8 -8 -7 -7 -12 -13 -13 -14 -10 -10 -10 -8 -6 -24 -24 nan nan nan nan nan nan nan nan nan nan nan nan nan nan nan nan nan nan nan nan nan nan nan nan nan nan nan nan nan nan nan nan nan nan nan nan nan nan nan nan nan nan nan nan nan nan nan nan
nan nan nan nan nan nan nan nan nan nan nan nan nan nan nan nan nan nan nan nan nan -19 -11 -10 -10 -9 -9 -14 -20 -20 -17 -9 -6 -6 -5 -15 nan nan nan nan nan nan nan nan nan nan nan nan nan nan nan nan nan nan nan nan nan nan nan nan nan nan nan nan nan nan nan nan nan nan nan nan nan nan nan nan nan nan nan nan nan nan nan nan nan nan
nan nan nan nan nan nan nan nan nan nan nan nan -11 -11 -11 -18 nan nan nan nan nan -14 -9 -8 -8 -8 -7 -10 -9 -9 -6 -3 -5 -5 nan nan nan nan nan nan nan nan nan nan nan nan nan nan nan nan nan nan nan nan nan nan nan nan nan nan nan nan nan nan nan nan nan nan nan nan nan nan nan nan nan nan nan nan nan nan nan nan nan nan nan nan
Wind_Speed
2 1 1 0 0 1 1 1 1 2 3 3 2 2 2 3 2 2 2 2 2 2 3 3 3 3 4 6 7 9 10 11 12 13 13 14 14 14 14 14 14 14 15 15 15 16 16 17 17 18 18 18 18 18 18 19 19 19 19 20 20 20 20 20 20 21 20 20 20 19 19 18 18 17 18 18 17 16 15 15 15 15 16 17 18 19
1 1 1 1 1 0 2 1 0 1 2 3 3 3 4 4 4 4 2 2 2 2 2 3 3 3 3 5 6 8 9 11 12 12 13 13 14 14 15 15 15 15 15 16 16 17 17 17 18 18 18 18 18 18 18 19 19 19 19 20 20 20 20 20 21 21 20 20 19 19 19 18 18 18 19 19 19 19 18 18 17 17 17 18 19 19
1 1 1 1 1 0 1 1 1 0 0 2 2 3 4 4 5 5 4 4 3 2 2 2 3 3 4 4 6 8 9 10 11 12 13 13 14 14 14 15 15 15 16 16 17 17 17 18 18 18 18 18 18 18 18 18 19 19 19 19 20 20 20 20 20 20 19 19 19 18 18 18 19 19 19 20 20 20 20 20 19 19 19 20 20 20
0 1 1 1 0 0 1 1 1 1 1 1 2 2 2 3 4 4 4 4 4 4 3 2 3 3 3 4 5 7 9 10 11 12 12 13 13 14 14 15 15 15 16 16 17 17 18 18 18 18 18 18 18 18 18 18 18 18 18 19 19 19 19 19 19 19 18 18 18 18 18 18 19 19 19 20 20 21 21 20 20 20 20 21 21 21
0 0 1 1 1 1 1 1 1 1 1 1 2 2 2 2 3 3 4 4 4 4 4 3 3 3 3 3 5 7 9 10 11 12 12 13 13 14 14 15 15 16 16 17 17 18 18 18 18 18 18 18 18 18 18 18 18 18 18 18 18 18 18 18 18 18 18 18 18 18 18 18 18 19 19 20 20 20 21 20 20 20 21 21 21 21
1 0 0 0 1 1 1 1 1 1 1 1 1 1 1 2 2 2 3 3 4 4 4 4 3 3 4 4 5 7 9 11 11 12 12 12 13 13 14 14 15 16 16 17 17 18 18 18 19 19 19 18 18 18 18 18 18 17 17 17 18 18 18 18 18 18 18 18 18 18 18 18 18 19 19 19 20 20 20 20 20 20 21 21 21 21
1 1 1 1 1 1 1 1 1 1 1 1 1 1 1 1 1 2 2 3 3 3 4 4 4 4 4 4 6 7 8 9 10 11 11 12 12 13 13 14 15 15 16 17 17 18 18 19 19 19 19 19 19 18 18 18 18 17 17 17 17 17 18 18 18 18 18 18 18 19 19 19 19 19 19 19 20 20 20 20 21 21 21 21 21 21
2 2 1 1 1 1 1 1 1 1 1 1 2 2 3 2 2 2 2 2 2 2 3 3 3 3 3 3 4 5 5 6 6 7 8 9 10 11 12 13 14 15 16 16 17 18 18 18 19 19 19 19 19 19 18 18 18 17 17 17 17 17 17 18 18 18 19 19 19 19 19 19 19 19 19 20 20 20 20 21 21 21 21 21 21 21
2 2 2 1 1 2 2 2 1 0 1 0 1 2 3 4 3 3 2 2 2 1 1 2 3 3 3 2 2 3 4 4 4 4 5 6 6 8 9 11 13 14 15 16 17 17 18 18 19 19 19 19 19 19 18 18 17 17 16 16 16 16 17 17 18 18 19 19 19 19 19 19 19 19 20 20 20 20 20 20 21 21 21 21 21 21
2 2 2 2 1 1 2 3 2 1 1 1 0 1 2 3 4 4 4 3 2 1 1 1 2 3 3 3 2 2 3 4 6 7 7 7 8 9 10 10 11 12 14 15 16 17 17 18 18 19 19 19 19 19 18 17 17 16 16 16 16 16 17 17 17 18 18 18 19 19 19 19 19 20 20 20 20 20 20 20 20 21 21 21 21 22
2 2 2 2 2 1 1 2 2 1 1 1 0 0 0 1 2 3 5 5 4 3 2 1 2 2 3 3 3 2 2 3 5 6 8 9 11 11 12 11 11 12 14 14 15 16 16 17 18 18 18 19 18 18 17 16 16 15 15 16 16 16 17 17 17 17 18 18 18 19 19 19 19 20 20 20 20 20 20 20 20 20 21 21 21 22
2 1 1 2 2 1 1 2 1 1 1 1 2 2 2 1 1 1 3 5 5 5 4 3 2 2 3 3 3 3 3 3 4 4 5 6 7 8 8 9 9 10 11 11 12 13 14 16 16 17 17 17 17 17 16 15 15 15 15 16 16 17 17 17 17 17 18 18 18 18 19 19 19 20 20 20 20 20 20 20 20 20 20 21 21 21
2 1 1 1 1 2 2 2 1 1 1 1 2 3 3 2 1 1 2 3 4 5 5 5 3 2 3 3 3 3 3 3 4 4 4 4 4 4 4 5 5 5 5 6 7 8 11 13 14 15 15 15 15 16 16 15 15 16 16 17 17 17 18 18 18 18 18 18 18 18 19 19 19 20 20 20 20 20 20 20 20 20 20 20 21 21
2 1 1 1 2 2 2 2 2 2 2 2 2 3 3 2 1 1 2 3 4 4 4 4 4 3 3 3 3 3 3 3 3 3 3 3 3 3 3 3 4 4 3 4 5 6 9 10 10 11 13 13 14 14 15 15 16 17 17 18 18 19 19 19 19 18 18 18 18 19 19 19 19 20 20 20 21 21 21 21 20 20 20 21 21 21
1 1 2 2 2 2 2 2 2 3 3 3 2 2 2 2 1 2 2 3 4 3 3 4 5 4 3 3 3 3 3 3 3 3 3 3 3 3 3 3 3 3 3 4 5 7 8 8 8 9 10 11 12 13 14 15 16 18 18 19 20 20 20 20 20 19 19 19 19 19 19 19 20 20 20 20 21 21 21 21 21 21 21 21 21 21
1 2 2 3 3 2 2 2 2 3 3 3 2 2 2 2 2 2 3 4 4 3 3 4 5 5 4 3 3 3 3 2 2 3 3 3 2 2 3 3 3 3 3 4 5 6 6 7 7 8 9 11 13 15 17 17 18 19 20 20 21 21 21 21 21 20 20 20 20 20 20 20 20 20 20 21 21 21 21 21 21 21 21 21 21 21
1 2 2 3 3 3 3 2 2 3 3 2 2 2 2 3 3 3 3 3 3 3 3 3 5 5 5 3 2 1 2 1 1 2 2 3 3 1 2 2 3 4 4 5 6 7 6 7 7 8 8 12 14 17 18 18 19 20 20 21 21 22 22 22 21 21 21 21 21 21 21 21 21 21 21 21 21 21 21 21 21 22 22 22 21 21
1 2 2 3 3 3 3 2 2 2 2 2 2 2 2 2 2 2 3 3 3 3 3 3 4 4 5 5 3 0 2 1 1 2 3 4 4 2 1 2 3 5 5 6 7 7 7 7 7 8 9 14 17 18 19 19 20 21 21 22 22 22 22 22 22 22 22 21 21 21 21 21 21 21 21 21 21 21 22 22 22 22 22 22 22 22
2 2 2 3 3 3 3 2 2 2 2 2 2 1 1 1 1 2 2 3 3 4 4 5 5 5 5 6 5 2 2 1 2 3 4 6 5 3 1 2 3 5 6 6 7 7 7 7 9 11 14 17 19 20 20 21 21 22 22 22 23 23 23 23 22 22 22 22 22 22 22 22 22 22 22 22 22 22 22 22 22 22 22 22 22 22
3 3 3 3 3 3 3 3 2 2 2 1 1 2 3 3 3 2 3 2 3 3 4 5 6 6 5 6 6 3 1 0 1 3 5 6 6 5 1 2 4 6 6 6 6 6 7 7 8 11 15 17 19 20 21 21 22 22 23 23 23 23 23 23 23 23 23 23 23 22 22 22 22 22 22 22 22 22 22 22 22 22 22 22 22 22
4 4 3 3 2 2 3 2 2 2 2 2 2 3 3 3 3 3 3 3 3 4 4 5 6 6 5 6 7 5 2 1 2 4 5 7 8 7 3 3 4 5 6 6 5 5 7 7 7 8 11 16 19 20 21 22 22 23 23 23 24 24 24 23 23 23 23 23 23 23 23 23 23 23 22 22 22 22 22 23 23 22 22 22 22 22
4 4 3 3 2 3 3 3 3 3 3 3 3 3 3 3 4 4 4 4 4 5 5 6 7 7 6 8 8 6 4 3 3 5 6 9 10 9 4 3 4 4 6 5 5 5 6 6 6 8 12 17 19 21 22 22 23 23 24 24 24 24 24 24 24 23 23 23 23 23 23 23 23 23 23 23 23 23 23 22 22 22 22 22 22 22
5 5 4 4 4 4 4 4 4 4 4 4 4 4 4 4 4 5 4 4 5 6 7 7 7 7 7 7 7 7 5 5 5 6 6 9 10 8 4 3 3 4 5 5 5 5 5 6 6 8 12 17 20 21 23 23 23 24 24 24 24 24 24 24 24 24 24 23 23 23 23 23 23 23 23 23 23 23 22 22 22 22 22 22 22 22
5 5 5 5 5 5 4 5 5 5 5 5 5 5 5 5 5 5 4 5 5 6 6 7 7 7 7 7 6 5 4 4 5 5 6 7 8 7 4 2 3 5 6 5 5 5 5 5 6 7 9 15 18 21 22 23 23 24 24 24 24 24 24 24 24 24 24 23 23 23 23 23 23 23 23 23 23 22 22 22 22 22 22 21 21 21
5 6 5 6 6 7 7 7 7 7 6 5 5 5 5 6 6 6 5 5 5 6 6 7 8 8 6 5 5 4 3 3 4 4 4 5 6 6 4 3 4 6 7 5 5 5 5 6 5 6 7 11 16 19 21 22 23 24 24 24 24 25 25 24 24 24 23 23 23 23 23 23 23 23 23 23 22 22 22 22 21 21 21 21 21 20
8 9 9 10 12 13 14 14 13 13 13 9 7 5 4 5 5 5 4 4 5 5 7 8 9 8 6 6 6 5 3 2 3 4 4 4 6 6 5 3 4 6 7 5 5 5 6 6 6 5 6 9 12 16 19 21 22 23 24 24 24 25 25 24 24 24 23 23 23 23 23 23 23 23 22 22 22 22 22 21 21 21 21 20 20 19
15 15 16 16 17 17 17 18 18 18 19 16 14 11 8 6 5 5 5 4 4 5 7 8 9 8 7 6 6 6 4 2 2 3 3 4 6 7 6 4 4 6 7 6 5 6 7 7 6 6 6 7 9 12 16 19 21 22 23 24 24 24 24 24 24 23 23 22 22 22 22 22 22 22 22 22 21 21 21 21 20 20 20 19 17 16
17 18 18 18 18 18 18 18 18 18 18 19 19 18 13 8 7 7 8 6 5 6 7 8 8 8 7 7 6 6 5 4 3 3 3 3 5 6 5 5 5 6 6 6 6 6 7 8 7 6 7 7 8 9 13 16 19 20 21 22 22 23 23 23 22 22 22 21 21 21 21 21 21 21 21 21 21 20 20 20 20 19 18 15 12 9
15 16 16 16 16 16 16 16 15 16 16 17 18 17 13 8 7 8 8 6 6 7 8 8 8 8 8 8 7 6 6 5 4 3 3 4 5 5 4 4 5 5 5 5 5 5 5 5 5 6 7 9 9 8 9 12 13 14 15 18 19 20 20 20 20 20 20 20 20 20 20 20 20 20 20 20 20 20 19 20 19 17 13 10 8 6
9 10 11 11 12 12 11 10 10 11 13 15 17 16 12 8 7 7 7 6 6 7 9 9 9 8 8 7 7 7 6 5 4 3 3 3 4 4 3 4 4 4 3 4 4 4 4 3 4 5 6 7 7 6 6 7 7 8 8 11 13 15 16 17 18 18 19 19 19 19 19 20 20 20 20 19 19 19 19 19 17 13 8 6 5 4
6 6 6 6 6 6 6 6 6 7 10 12 13 13 10 8 7 7 7 6 6 7 8 9 9 8 7 6 6 6 5 4 3 2 2 3 3 3 2 4 5 4 3 3 4 5 5 3 3 3 4 4 4 5 5 6 5 5 5 6 7 9 13 14 15 16 16 17 17 18 19 19 19 19 19 18 18 18 17 17 15 11 5 4 3 4
4 5 4 4 4 4 4 5 5 6 6 8 8 8 8 8 7 7 6 6 6 7 8 9 9 8 7 7 7 7 6 5 3 2 2 3 4 3 3 4 5 5 3 3 4 5 6 4 2 2 2 2 3 3 4 5 5 5 5 5 5 7 10 11 12 12 12 14 15 16 17 17 17 17 17 17 16 16 15 15 13 10 5 3 3 4
4 4 4 5 5 4 5 5 5 6 6 6 6 6 7 7 8 8 7 6 6 7 8 8 8 8 8 9 9 9 7 6 5 5 5 4 4 3 3 4 5 4 3 4 4 5 5 5 3 3 2 2 3 3 3 4 5 5 5 5 5 6 8 8 8 8 9 10 11 12 14 15 15 15 15 14 14 14 13 13 12 10 7 4 3 4
5 5 5 5 5 5 5 5 6 6 6 6 7 7 7 7 7 8 8 7 7 7 8 8 8 9 9 9 9 9 8 7 7 7 6 5 4 3 3 3 4 4 4 4 5 5 6 6 5 4 4 4 3 3 3 4 5 5 5 5 5 5 6 5 5 6 7 6 6 7 8 9 9 10 10 11 11 11 11 12 12 11 10 7 5 4
5 6 5 5 5 5 6 6 6 6 7 7 7 7 7 7 7 7 8 8 8 8 8 8 8 8 9 9 9 10 9 8 8 8 7 5 4 3 3 3 3 4 6 7 7 6 6 6 6 6 6 5 4 4 3 4 4 3 3 4 5 5 5 4 4 5 5 5 4 4 4 4 4 5 5 7 8 9 10 11 11 12 13 11 9 7
5 6 6 6 6 6 6 6 6 6 6 6 6 6 6 6 6 6 7 7 7 8 8 8 8 8 8 9 9 10 10 9 9 9 8 6 4 4 4 4 4 4 6 8 8 7 6 6 6 6 7 7 6 5 4 3 2 2 2 3 5 5 5 4 4 4 4 4 4 4 3 3 3 3 3 5 7 8 10 10 11 12 13 14 13 12
6 6 6 5 5 6 6 5 5 5 5 5 5 5 5 5 6 6 6 6 6 7 8 8 9 9 10 9 10 10 11 10 9 9 9 8 6 6 6 6 5 5 6 7 7 6 5 5 6 7 7 7 7 6 5 3 2 2 3 3 4 5 5 4 4 4 3 4 5 4 4 4 3 3 4 6 7 8 9 10 11 11 12 13 14 15
6 6 6 5 5 5 5 5 5 5 5 5 5 5 5 5 5 6 6 6 7 7 8 8 9 10 13 13 13 13 13 12 12 12 12 11 9 8 9 9 8 7 7 7 7 7 6 7 8 8 7 7 8 8 7 5 4 3 3 3 4 4 4 4 4 4 4 5 5 5 5 5 4 3 3 4 3 4 5 5 6 8 10 10 12 13
6 6 5 5 5 5 5 5 5 5 5 5 5 5 5 5 6 6 6 7 7 8 8 9 9 10 12 13 15 15 15 15 14 14 13 12 10 9 10 10 10 10 8 8 9 9 9 9 9 9 8 8 8 7 6 5 5 4 3 2 2 3 4 4 4 4 4 4 5 5 5 4 3 3 3 2 2 2 3 3 4 5 5 5 7 9
6 6 6 6 6 5 5 6 5 5 5 5 5 6 6 6 6 6 7 7 7 8 9 10 10 10 11 11 13 14 15 14 14 13 12 10 9 9 10 10 10 10 10 10 10 10 11 10 10 10 9 8 8 7 6 5 5 4 4 4 3 3 4 4 4 4 4 4 5 5 4 3 3 3 3 3 3 3 4 3 3 4 4 3 3 4
7 7 6 6 6 6 6 6 5 5 5 5 5 5 5 5 5 5 5 6 6 7 8 9 9 10 10 11 12 13 14 13 14 13 11 11 11 11 9 10 10 10 10 10 10 10 10 10 10 9 8 8 8 8 8 7 7 7 7 6 5 4 3 4 4 4 4 4 5 5 5 4 5 5 4 5 5 4 4 4 3 3 3 3 3 3
8 8 6 6 6 5 5 5 6 6 6 5 5 5 5 5 4 4 4 5 5 6 6 7 8 9 10 10 10 11 11 12 12 12 12 13 12 12 11 10 10 10 10 10 10 10 9 9 9 9 8 7 7 8 8 8 8 8 8 7 6 4 3 3 4 4 4 5 5 5 6 5 5 5 5 5 5 4 4 4 5 5 5 4 4 4
8 7 7 6 6 6 6 6 6 6 5 5 5 5 4 4 4 5 5 6 7 8 8 7 7 7 8 9 8 8 8 9 10 11 11 12 12 12 12 12 11 10 10 10 10 9 9 9 10 10 9 7 7 8 9 8 8 8 8 7 6 4 3 2 2 3 4 5 5 5 5 5 5 4 4 4 3 3 3 5 6 7 7 5 4 4
7 6 6 6 6 6 6 6 6 5 5 5 5 5 4 4 4 5 6 7 7 7 6 5 5 5 7 7 7 6 6 6 7 8 9 10 11 12 12 13 12 12 11 10 9 9 8 9 9 9 8 7 8 8 9 8 8 8 7 6 6 5 4 3 2 3 3 4 4 5 5 5 4 3 3 3 3 3 3 3 4 5 6 5 5 4
6 6 6 5 6 6 6 6 6 5 5 5 6 5 5 4 5 6 6 7 6 5 4 4 5 6 7 8 8 8 8 7 6 6 6 9 11 13 12 12 11 11 11 10 10 9 8 9 9 8 7 7 8 9 9 8 8 8 7 7 6 6 6 4 3 3 3 4 4 4 5 4 3 2 3 3 4 4 4 4 4 5 5 5 4 5
5 6 6 5 5 5 6 6 6 6 6 6 6 6 5 5 5 5 6 6 6 5 5 5 5 6 8 8 8 8 8 8 7 6 6 6 8 9 10 10 10 10 9 10 10 10 10 9 9 8 7 7 8 8 8 8 8 7 7 6 6 5 5 4 3 3 4 4 4 4 4 3 3 3 4 4 4 4 4 4 5 5 5 5 5 5
5 6 6 6 5 6 6 6 6 6 6 6 6 6 5 5 5 5 5 5 6 6 6 6 6 7 9 9 8 8 9 9 9 8 7 7 6 6 7 8 9 9 9 9 10 10 10 10 9 9 8 7 7 7 8 7 7 7 6 5 5 5 5 4 4 4 4 4 4 4 3 3 3 3 4 4 4 4 4 4 5 5 5 5 5 5
7 7 6 6 6 6 6 6 6 6 7 7 7 6 6 6 6 7 6 6 6 6 6 6 7 8 9 9 9 9 10 10 10 10 9 8 6 5 5 5 6 7 8 9 10 10 10 9 8 8 7 7 7 7 7 7 6 6 5 4 4 4 5 4 4 3 3 4 4 4 4 4 4 4 4 4 4 4 4 5 5 5 5 5 5 5
6 7 6 6 6 6 7 7 7 7 8 8 8 7 7 7 8 8 7 6 6 6 6 8 8 9 9 9 9 9 10 11 10 10 9 7 6 4 4 4 4 4 5 6 7 7 7 7 7 7 6 7 8 8 8 7 6 5 4 3 3 4 5 4 3 3 3 3 3 4 4 4 4 4 3 4 5 5 5 5 5 4 4 4 5 5
6 6 6 6 6 7 8 8 8 8 8 8 8 8 7 7 6 6 6 6 6 6 8 8 9 9 9 10 10 10 10 10 9 8 7 6 6 5 5 4 3 3 3 3 4 4 4 4 5 7 9 10 10 9 8 8 7 5 4 4 3 3 4 4 3 2 3 3 3 3 3 3 3 2 2 3 5 6 6 6 5 4 4 4 5 5
7 7 7 7 7 7 7 8 8 8 8 8 8 8 8 7 7 6 6 6 7 7 8 8 8 9 10 10 10 10 9 9 9 9 9 7 6 6 6 5 4 3 3 3 3 3 3 3 3 5 7 10 12 11 8 8 7 6 5 4 3 3 3 3 2 2 2 2 2 2 3 2 2 2 2 3 4 5 6 6 5 4 3 3 4 5
Wind_Direction
248 260 285 342 338 306 292 302 348 346 324 323 326 330 331 334 326 308 289 287 285 282 284 281 279 283 290 297 302 305 307 307 308 307 306 304 302 300 298 297 297 297 298 299 300 300 301 300 300 299 298 297 296 295 294 293 293 292 291 290 290 289 288 288 287 287 287 287 287 287 287 289 290 292 294 293 292 291 289 289 288 288 286 284 280 277
280 287 315 31 49 5 286 289 339 21 330 322 325 330 338 334 329 323 317 308 292 280 278 279 279 278 277 284 292 297 299 301 301 301 301 299 297 296 294 293 293 294 295 296 297 297 298 298 297 296 295 294 293 292 292 291 290 290 289 289 288 288 287 287 286 286 287 288 288 288 288 288 289 289 289 288 288 287 286 285 285 284 284 282 281 279
317 323 309 15 66 76 279 293 299 137 271 300 309 319 332 330 326 324 323 322 315 301 280 274 274 276 274 276 283 289 291 293 295 295 294 293 291 290 289 289 290 291 292 293 294 294 295 294 294 293 292 291 290 289 289 289 288 287 287 286 286 285 285 284 284 284 285 286 287 287 287 286 285 285 284 284 283 283 282 282 281 280 279 278 277 276
289 305 290 299 273 217 244 273 281 271 237 270 291 305 320 319 315 314 313 316 316 312 300 282 272 272 273 274 277 280 284 287 288 289 288 287 287 286 286 287 288 289 289 290 291 291 292 292 291 290 289 288 287 287 286 286 286 285 285 284 283 282 281 281 281 281 281 282 283 283 283 282 282 281 281 280 279 279 278 278 277 276 275 274 273 272
263 259 273 295 306 285 253 258 266 273 268 277 291 302 310 304 302 303 307 311 313 313 309 300 286 276 276 275 275 277 280 283 284 285 284 284 284 284 284 285 286 287 288 289 289 290 290 290 289 288 288 287 286 285 285 285 285 284 284 283 282 280 279 279 278 278 278 278 278 279 279 279 279 279 279 278 277 276 275 275 274 274 273 272 271 270
292 272 300 324 315 298 290 286 293 301 309 307 306 302 297 292 295 301 306 310 311 309 308 306 297 287 279 277 277 279 281 282 283 283 282 282 282 283 283 284 285 286 287 288 288 289 289 289 288 288 287 286 286 285 285 284 284 284 283 282 282 281 279 278 277 276 276 276 276 276 276 276 277 277 277 276 276 275 274 273 273 272 272 271 270 270
313 334 10 351 317 298 305 310 325 339 347 333 326 318 301 293 290 290 289 298 303 304 303 302 299 293 286 280 279 281 283 284 284 283 282 281 281 281 282 283 284 286 287 288 289 289 289 289 288 288 287 287 286 286 285 285 284 284 283 282 282 281 280 279 277 276 275 275 274 274 274 274 274 274 273 273 273 272 272 271 271 271 271 271 271 270
319 328 350 341 328 320 318 310 317 353 33 350 331 324 317 311 299 285 278 288 293 297 298 299 299 297 293 287 284 285 284 284 282 281 280 278 277 278 279 282 284 286 287 288 289 290 290 290 289 289 288 288 287 287 286 286 285 284 283 282 282 281 280 279 277 276 275 274 274 273 272 272 272 271 271 271 270 270 269 269 269 270 270 270 270 270
308 313 319 321 322 318 315 308 310 5 71 43 330 316 314 314 310 304 299 297 291 283 283 295 298 298 294 292 290 288 283 278 274 273 274 270 270 273 277 282 285 287 289 290 291 291 291 291 291 290 290 289 288 288 287 286 285 284 283 282 281 281 280 278 277 277 275 274 274 273 272 272 272 271 270 269 268 268 267 267 268 268 269 269 270 270
290 293 297 294 288 284 293 296 299 333 66 72 273 279 295 304 308 310 310 304 295 282 274 275 284 291 294 291 288 284 283 279 278 278 280 280 282 283 284 287 289 290 291 291 292 292 292 292 291 291 290 290 289 289 288 286 285 284 283 282 281 280 279 279 278 277 276 275 275 274 273 273 272 272 271 269 268 267 266 266 266 267 267 268 268 269
285 279 280 282 278 263 248 268 280 315 52 35 4 304 256 271 289 301 308 306 305 303 294 261 258 273 288 292 288 281 280 283 282 283 283 285 287 288 289 289 289 290 291 291 291 292 291 291 291 290 290 289 289 288 287 286 285 283 282 281 281 280 279 278 278 277 276 275 275 274 274 273 272 272 271 270 268 267 266 265 264 265 265 266 266 267
270 270 268 274 281 281 266 265 280 328 21 1 342 324 308 264 237 260 289 297 302 303 300 285 259 243 254 272 281 283 277 274 275 278 280 282 284 286 288 288 288 289 289 290 290 290 289 289 288 288 287 287 286 286 285 284 283 282 281 281 280 280 279 278 277 277 276 275 275 274 273 273 272 271 270 269 268 266 265 264 263 263 263 263 264 265
252 258 263 270 274 276 274 281 296 316 338 319 296 288 286 270 236 212 249 276 286 292 294 291 281 257 233 235 247 260 266 266 266 267 269 272 274 276 279 281 282 284 287 288 287 285 285 284 284 283 282 282 282 282 281 280 280 280 280 280 280 279 279 278 277 276 275 275 274 273 273 272 272 271 270 268 267 266 265 263 262 262 261 262 262 263
253 257 266 270 270 269 265 270 276 278 273 252 246 251 260 252 234 234 261 272 275 277 281 283 283 278 257 235 226 225 233 252 263 265 262 258 252 251 258 266 269 272 278 281 280 277 277 279 279 279 277 277 277 277 276 277 277 277 277 278 278 278 278 277 277 276 275 274 274 273 273 272 271 270 269 268 267 266 264 263 262 261 261 261 261 261
247 252 262 265 265 264 259 263 267 268 265 251 245 247 256 256 248 252 268 278 281 283 284 284 284 280 265 241 225 214 212 234 255 264 266 257 240 223 223 251 259 262 263 271 273 273 271 272 273 274 273 270 269 268 268 271 272 273 274 275 276 276 276 276 275 275 274 274 273 273 272 272 271 270 269 268 267 265 264 263 262 261 260 260 260 260
238 246 259 264 266 264 261 263 268 272 272 265 257 256 270 270 266 260 263 277 286 294 295 296 296 292 277 256 231 211 206 229 247 258 267 264 248 208 189 233 253 260 257 265 270 272 269 265 265 265 266 264 264 264 264 266 268 270 271 272 273 274 274 274 274 273 273 273 272 272 272 271 271 270 269 268 267 266 264 263 262 261 260 260 260 260
247 255 264 269 272 272 270 268 268 271 277 275 267 255 253 261 264 266 268 280 290 294 291 292 297 300 300 293 267 212 167 211 244 258 266 268 265 236 174 219 255 266 264 265 269 271 270 264 261 261 261 261 262 263 264 265 266 268 269 270 271 271 272 272 272 272 271 271 271 271 271 271 271 270 269 268 267 266 264 263 262 261 260 260 259 259
245 249 259 267 270 271 272 275 278 279 281 280 276 267 257 258 265 270 276 284 289 291 291 289 287 291 299 299 299 297 118 156 252 273 279 277 274 261 178 219 252 264 266 265 266 267 267 263 261 260 263 264 264 265 265 266 267 268 269 269 269 269 269 269 269 270 270 270 270 270 270 270 270 270 269 268 267 266 265 263 262 261 260 259 259 258
245 243 247 257 262 267 269 270 273 276 273 270 274 290 304 297 285 275 271 276 279 281 285 286 284 283 285 286 298 328 103 158 270 284 285 281 279 274 188 222 251 261 263 260 259 260 262 263 263 264 265 267 267 268 268 268 269 269 269 269 268 268 268 268 268 268 268 268 269 269 269 270 269 269 269 268 267 266 264 263 262 261 260 259 258 258
253 248 243 248 257 264 263 254 248 244 242 253 283 307 306 306 299 288 278 273 271 273 277 280 282 282 282 284 288 293 120 110 292 289 284 281 280 275 217 215 245 258 260 256 252 252 257 261 265 268 269 269 269 269 269 269 269 269 269 268 268 267 267 267 267 267 267 267 268 268 268 269 269 268 268 267 266 265 264 263 262 260 259 258 257 257
259 253 239 232 240 255 259 249 240 238 251 283 301 304 298 297 293 289 284 283 282 280 280 279 279 279 280 281 282 275 196 201 269 282 284 280 277 273 252 222 235 252 259 256 251 248 251 257 262 266 269 269 269 269 269 269 268 268 268 267 267 267 266 266 266 266 266 266 267 267 268 268 268 268 267 267 266 265 263 262 261 260 259 258 257 257
261 260 246 229 231 247 262 263 263 267 276 285 287 286 285 284 282 280 277 277 277 277 275 274 273 273 271 272 274 269 224 221 244 266 279 277 274 271 263 238 236 248 256 255 251 247 247 252 257 262 266 267 268 269 269 268 267 267 266 266 266 265 265 265 265 265 265 266 266 267 267 268 268 268 267 267 265 264 263 262 260 259 258 257 257 257
259 262 261 251 247 251 262 267 269 269 267 261 258 258 259 261 264 267 268 265 266 268 268 268 268 267 263 264 266 263 241 231 238 252 266 270 273 274 269 247 240 249 255 254 253 251 249 250 254 260 264 266 266 267 267 266 266 265 265 264 264 264 264 264 264 264 264 265 266 267 267 268 268 268 267 266 265 264 263 261 260 259 258 257 257 256
255 259 260 257 254 253 257 259 259 257 251 246 246 246 247 249 251 255 258 260 264 267 270 270 269 267 263 263 264 260 241 223 226 239 253 264 270 275 276 262 259 262 261 253 252 254 257 254 252 255 261 263 264 264 264 264 263 263 263 263 263 263 263 263 263 263 264 265 266 267 267 268 267 267 267 266 265 264 263 262 260 259 258 257 257 256
249 250 253 252 251 250 251 253 254 253 250 246 242 242 244 246 249 252 255 258 262 265 269 272 273 273 275 275 275 273 258 212 209 222 247 265 273 276 275 267 266 268 267 258 252 253 260 259 256 253 258 261 262 262 262 262 261 261 261 261 262 262 262 262 262 263 264 265 266 267 267 267 267 267 266 266 265 264 263 262 261 260 259 258 257 256
251 251 251 253 253 254 254 256 259 262 265 266 263 257 254 253 254 255 254 255 259 265 271 274 277 279 282 283 282 282 281 229 205 212 239 267 276 277 276 269 266 268 270 265 257 253 259 260 258 254 256 260 261 261 260 260 260 260 260 261 261 262 262 263 263 264 265 266 267 267 267 267 267 266 266 265 264 264 263 262 261 261 260 260 259 257
265 265 264 264 264 264 265 266 269 272 275 278 281 282 281 279 275 271 265 264 268 272 275 278 280 281 280 277 277 278 278 252 217 213 224 258 271 275 276 273 268 268 271 268 259 251 254 258 257 255 254 257 260 261 260 260 260 260 260 261 262 262 263 264 265 265 266 267 267 268 268 268 267 267 266 265 265 264 263 262 262 262 262 261 260 258
273 273 274 274 275 276 276 278 279 281 283 284 285 286 285 284 280 276 273 274 275 274 272 274 277 279 279 276 276 277 278 270 248 222 213 245 262 268 275 273 267 266 270 270 263 252 249 254 255 254 253 254 257 260 261 261 261 261 262 263 263 264 266 266 267 268 268 269 269 269 269 268 268 267 267 266 265 264 263 263 263 263 262 261 260 258
275 275 276 277 278 279 280 282 283 284 284 284 284 283 282 278 273 271 272 274 273 271 270 271 272 275 278 279 278 277 273 271 261 238 214 238 255 263 271 269 265 263 269 275 272 262 247 248 248 248 249 250 252 256 262 263 264 265 267 267 267 268 268 269 269 270 270 270 270 269 269 269 268 268 267 267 266 265 264 264 263 263 262 260 259 258
272 273 273 274 275 276 277 279 280 280 280 280 279 279 276 271 267 267 269 269 266 266 268 269 270 271 274 279 279 277 269 265 257 241 210 238 255 265 268 265 262 260 262 276 279 275 261 246 241 243 248 249 251 256 263 267 269 272 273 272 272 271 270 270 269 269 269 269 268 268 268 268 268 267 267 266 266 265 264 264 263 263 261 258 259 259
261 262 265 266 267 268 269 270 272 273 275 276 276 275 273 268 264 263 265 260 258 259 263 266 266 267 268 273 275 275 273 269 258 231 189 242 260 267 260 264 262 256 239 249 273 283 284 269 255 254 266 265 264 263 264 266 267 267 267 270 270 269 267 266 266 266 266 265 265 265 265 265 266 266 265 265 265 264 264 264 263 262 260 258 258 261
257 261 266 271 272 272 273 273 272 272 272 272 271 269 267 265 262 260 257 254 252 254 258 261 263 263 261 263 267 270 275 277 265 233 210 250 266 268 249 258 262 259 239 231 250 271 285 284 278 274 290 282 274 266 257 256 256 256 254 255 259 261 260 260 260 261 261 261 261 261 262 262 262 263 263 263 263 263 263 263 263 262 259 257 257 261
277 279 281 284 283 281 278 276 274 272 269 267 265 264 263 262 261 259 257 253 250 251 254 258 260 262 261 262 263 265 269 273 265 250 237 250 261 263 243 247 255 262 261 248 249 257 269 275 278 277 273 260 253 249 246 245 243 240 237 239 247 253 254 253 254 254 253 254 256 257 258 259 260 260 261 261 262 262 263 263 263 262 260 258 258 261
282 282 281 282 279 276 273 270 268 265 264 262 261 259 258 258 257 257 256 253 251 249 249 252 255 258 261 263 264 264 265 267 264 258 244 244 252 257 246 242 252 266 279 270 263 259 260 263 267 273 275 263 250 240 238 240 237 232 221 225 236 245 248 242 243 246 248 246 248 252 255 258 259 259 260 260 261 262 263 264 264 264 263 262 261 262
279 278 276 275 272 270 268 264 261 259 258 257 256 256 255 253 252 252 252 251 249 247 246 246 247 250 254 258 262 265 265 266 265 262 250 243 246 255 256 244 250 265 276 270 265 261 259 259 259 263 274 275 266 248 231 234 236 234 222 224 233 241 243 234 233 239 243 240 239 241 246 251 253 256 258 259 260 261 262 264 265 265 265 265 265 264
275 274 271 269 267 265 263 260 258 257 256 255 253 252 252 252 251 251 251 252 252 252 251 249 247 246 247 250 256 262 266 268 269 268 262 253 254 262 269 262 259 262 267 265 262 259 257 261 263 265 271 276 274 266 246 233 233 241 240 232 236 241 243 232 226 228 235 234 234 234 233 234 234 238 243 252 256 259 262 264 266 267 268 268 267 267
271 270 266 263 261 261 262 260 258 257 257 257 255 254 254 255 256 257 258 260 261 263 263 262 260 257 254 253 255 260 266 270 272 270 268 266 267 270 274 275 272 266 261 265 266 264 262 269 274 276 273 270 270 270 265 251 243 244 242 227 229 235 242 230 220 218 226 230 230 229 227 226 227 230 236 248 255 261 265 267 269 271 271 271 271 270
270 269 269 264 262 261 262 261 259 258 258 259 259 258 259 259 262 263 267 267 268 269 270 270 269 267 265 264 264 265 268 270 271 270 268 267 267 269 272 275 273 268 260 263 267 270 270 273 276 277 274 266 262 261 264 262 257 252 241 224 223 229 235 225 215 213 220 228 232 232 230 225 223 225 235 244 252 261 269 271 271 272 273 274 273 273
272 272 271 268 265 262 261 261 259 258 257 258 260 261 263 265 265 265 265 266 266 266 266 266 267 267 266 266 265 265 266 266 265 264 263 262 261 262 265 269 269 267 262 260 261 263 265 265 265 265 265 265 262 258 254 253 254 255 253 247 245 242 236 222 215 214 217 224 232 237 237 229 223 223 231 233 236 243 253 259 259 259 262 269 274 274
272 271 270 267 264 260 258 259 258 258 257 260 263 265 265 267 266 264 260 259 260 261 260 259 260 261 260 260 260 260 260 259 259 258 257 255 253 253 256 261 264 266 265 261 259 258 258 259 258 257 256 260 262 263 260 254 251 251 257 262 258 244 226 217 214 213 212 216 225 232 237 232 227 225 229 227 227 229 233 238 244 245 243 245 258 269
268 268 267 266 263 261 260 260 259 259 258 261 262 263 261 261 261 261 258 256 256 257 257 257 257 258 258 256 255 255 254 254 253 252 251 249 247 247 248 253 258 263 266 264 262 260 259 261 262 262 259 259 262 265 265 263 260 259 259 260 257 245 216 208 205 206 207 214 220 226 232 235 233 231 232 232 230 227 224 226 234 241 244 237 234 239
268 269 270 271 270 269 267 264 262 260 257 257 257 256 255 253 255 259 264 265 263 260 257 257 260 261 261 258 254 251 249 249 247 245 244 244 243 243 245 248 253 258 262 264 263 262 260 262 264 265 263 262 264 266 267 266 265 262 259 261 264 263 245 218 204 199 203 212 217 221 229 234 235 233 233 235 235 232 225 223 230 238 244 239 232 228
272 275 277 277 276 275 272 269 266 264 260 258 257 256 255 255 263 271 276 275 273 269 266 263 262 263 265 263 259 253 248 244 242 241 241 240 240 241 243 245 248 252 256 259 261 261 258 257 259 261 263 263 263 265 268 269 269 266 261 261 261 264 264 242 212 201 206 210 212 214 222 229 232 233 234 236 237 236 232 235 240 243 245 243 239 235
273 275 276 275 274 273 273 272 272 271 269 268 267 267 265 264 268 272 275 273 270 267 266 270 274 277 277 278 280 278 269 254 244 241 241 239 238 237 241 244 246 248 249 252 256 260 260 256 255 257 259 261 262 263 265 268 268 267 264 259 253 248 248 235 201 187 206 214 215 216 221 226 231 236 242 248 249 247 240 241 244 247 248 247 245 244
268 269 270 270 272 274 275 275 275 274 272 271 271 272 271 268 266 267 268 271 272 275 284 295 298 294 289 291 292 291 288 283 276 266 256 249 245 243 242 243 245 246 245 246 249 254 259 260 261 261 259 259 259 261 263 266 267 266 264 258 252 247 249 239 205 184 197 210 217 220 221 220 225 235 248 250 248 246 241 240 244 246 248 246 246 248
263 266 267 268 269 270 271 272 273 273 272 271 271 271 271 268 265 265 266 271 276 281 285 286 286 284 282 283 284 284 283 282 280 276 270 261 253 247 243 242 242 243 243 244 246 248 251 256 261 264 265 262 259 258 258 261 264 265 264 259 254 251 252 241 220 202 200 207 213 216 211 203 209 226 242 246 247 245 240 238 240 243 245 243 243 244
263 266 269 269 270 269 270 272 273 273 273 271 270 270 270 269 268 267 266 266 269 272 273 272 271 271 273 277 279 280 281 281 280 278 274 268 259 250 242 240 239 240 241 244 245 246 248 251 256 260 264 265 264 262 259 258 259 260 262 258 254 251 251 241 226 212 206 210 209 203 182 182 206 229 243 248 250 250 247 243 242 241 241 240 241 241
267 269 272 274 274 274 275 276 275 276 276 276 275 274 273 273 273 274 273 271 271 274 276 275 272 269 270 272 274 276 277 278 277 275 273 269 262 250 236 234 235 238 241 244 247 250 252 255 257 259 261 262 265 266 266 262 260 258 258 253 248 248 249 243 230 214 207 215 210 197 180 191 212 231 243 251 255 255 254 251 246 240 235 235 236 239
271 273 276 276 276 276 278 279 280 280 280 280 281 280 278 276 276 277 278 278 277 276 275 274 273 271 271 272 273 273 272 270 269 268 267 267 267 263 251 238 235 238 244 249 252 256 262 264 260 254 248 249 255 262 267 266 264 260 256 248 242 242 247 245 233 213 202 212 210 203 195 206 217 227 238 253 260 263 263 260 253 244 231 228 230 234
273 275 277 278 278 278 280 282 282 282 282 283 283 283 283 282 279 278 280 281 279 276 274 272 272 272 273 275 275 273 270 268 268 269 272 277 281 282 278 263 249 243 249 253 255 258 264 266 256 245 234 232 236 244 257 261 262 260 255 243 235 233 240 243 235 214 199 206 205 202 201 214 221 225 233 253 262 266 267 265 260 250 230 223 226 233
279 279 279 279 279 279 280 282 283 283 283 283 284 284 285 287 287 286 285 283 280 277 275 273 273 274 276 277 277 276 274 277 280 283 284 284 284 283 281 276 266 256 255 259 259 257 257 262 264 254 239 227 222 222 234 246 253 256 254 242 228 219 229 238 235 220 202 200 196 193 196 212 221 227 229 246 259 265 268 266 262 254 232 221 226 234